Stündliche Wetter Juliopol

Heute, 6 März, Samstag

Zeit Temperatur Niederschläge Wind Luftdruck Luftfeuchtigkeit
00:00 -2°C° 0 mm 3 m/S 751 mmHg 62%
01:00 -2°C° 0 mm 3 m/S 752 mmHg 62%
02:00 -2°C° 0 mm 3 m/S 752 mmHg 64%
03:00 -2°C° 0 mm 3 m/S 752 mmHg 66%
04:00 -2°C° 0 mm 3 m/S 752 mmHg 69%
05:00 -2°C° 0 mm 3 m/S 752 mmHg 69%
06:00 -2°C° 0 mm 3 m/S 752 mmHg 69%
07:00 -4°C° 0 mm 3 m/S 752 mmHg 69%
08:00 -1°C° 0 mm 3 m/S 753 mmHg 63%
09:00 0°C° 0 mm 3 m/S 753 mmHg 57%
10:00 0°C° 0 mm 4 m/S 753 mmHg 51%
11:00 0°C° 0 mm 4 m/S 753 mmHg 48%
12:00 +1°C° 0 mm 4 m/S 753 mmHg 44%
13:00 +2°C° 0 mm 5 m/S 752 mmHg 41%
14:00 +2°C° 0 mm 5 m/S 752 mmHg 42%
15:00 +1°C° 0 mm 5 m/S 752 mmHg 42%
16:00 +1°C° 0 mm 5 m/S 751 mmHg 43%
17:00 0°C° 0 mm 4 m/S 751 mmHg 49%
18:00 -1°C° 0 mm 4 m/S 751 mmHg 56%
19:00 -2°C° 0 mm 4 m/S 751 mmHg 62%
20:00 -2°C° 0 mm 4 m/S 751 mmHg 63%
21:00 -2°C° 0 mm 4 m/S 750 mmHg 64%
22:00 -2°C° 0 mm 5 m/S 750 mmHg 66%
23:00 -2°C° 0 mm 5 m/S 750 mmHg 67%

Morgen, 7 März, Sonntag

Zeit Temperatur Niederschläge Wind Luftdruck Luftfeuchtigkeit
00:00 -2°C° 0 mm 5 m/S 750 mmHg 69%
01:00 -3°C° 0 mm 6 m/S 749 mmHg 70%
02:00 -3°C° 0 mm 6 m/S 749 mmHg 73%
03:00 -3°C° 0 mm 6 m/S 748 mmHg 76%
04:00 -3°C° 0 mm 7 m/S 748 mmHg 79%
05:00 -3°C° 0 mm 7 m/S 748 mmHg 79%
06:00 -4°C° 0 mm 8 m/S 748 mmHg 79%
07:00 -4°C° 0 mm 8 m/S 747 mmHg 80%
08:00 -2°C° 0 mm 8 m/S 747 mmHg 77%
09:00 -2°C° 0 mm 8 m/S 747 mmHg 74%
10:00 -2°C° 0 mm 8 m/S 746 mmHg 72%
11:00 -1°C° 0 mm 8 m/S 746 mmHg 70%
12:00 -1°C° 0 mm 8 m/S 746 mmHg 67%
13:00 -1°C° 0 mm 8 m/S 745 mmHg 65%
14:00 -1°C° 0 mm 8 m/S 745 mmHg 67%
15:00 -1°C° 0 mm 8 m/S 744 mmHg 68%
16:00 -1°C° 0 mm 7 m/S 744 mmHg 69%
17:00 -2°C° 0 mm 7 m/S 744 mmHg 72%
18:00 -2°C° 0 mm 6 m/S 744 mmHg 74%
19:00 -3°C° 0 mm 6 m/S 744 mmHg 77%
20:00 -3°C° 0 mm 6 m/S 744 mmHg 78%
21:00 -3°C° 0 mm 6 m/S 744 mmHg 80%
22:00 -4°C° 0 mm 6 m/S 744 mmHg 82%
23:00 -4°C° 0.1 mm 5 m/S 744 mmHg 85%

übermorgen, 8 März, Montag

Zeit Temperatur Niederschläge Wind Luftdruck Luftfeuchtigkeit
00:00 -4°C° 0.1 mm 5 m/S 744 mmHg 89%
01:00 -4°C° 0.1 mm 5 m/S 744 mmHg 93%
02:00 -4°C° 0.3 mm 5 m/S 744 mmHg 93%
03:00 -3°C° 0.3 mm 4 m/S 744 mmHg 94%
04:00 -2°C° 0.3 mm 3 m/S 743 mmHg 94%
05:00 -2°C° 0.1 mm 3 m/S 744 mmHg 91%
06:00 -2°C° 0.1 mm 2 m/S 744 mmHg 87%
07:00 -3°C° 0.1 mm 2 m/S 744 mmHg 84%
08:00 -2°C° 0 mm 2 m/S 745 mmHg 74%
09:00 -1°C° 0 mm 2 m/S 745 mmHg 64%
10:00 0°C° 0 mm 3 m/S 745 mmHg 54%
11:00 +1°C° 0 mm 3 m/S 745 mmHg 52%
12:00 +1°C° 0 mm 3 m/S 745 mmHg 50%
13:00 +1°C° 0 mm 4 m/S 746 mmHg 48%
14:00 +1°C° 0 mm 4 m/S 746 mmHg 49%
15:00 0°C° 0 mm 4 m/S 745 mmHg 50%
16:00 0°C° 0 mm 4 m/S 745 mmHg 51%
17:00 0°C° 0 mm 3 m/S 746 mmHg 57%
18:00 -1°C° 0 mm 2 m/S 746 mmHg 63%
19:00 -2°C° 0 mm 2 m/S 747 mmHg 69%
20:00 -2°C° 0 mm 2 m/S 747 mmHg 71%
21:00 -3°C° 0 mm 2 m/S 747 mmHg 73%
22:00 -1°C° 0 mm 1 m/S 747 mmHg 76%
23:00 -1°C° 0 mm 1 m/S 747 mmHg 76%

9 März, Dienstag

Zeit Temperatur Niederschläge Wind Luftdruck Luftfeuchtigkeit
00:00 -1°C° 0 mm 1 m/S 747 mmHg 77%
01:00 -2°C° 0 mm 1 m/S 747 mmHg 78%
02:00 -2°C° 0 mm 1 m/S 747 mmHg 77%
03:00 -2°C° 0 mm 1 m/S 747 mmHg 76%
04:00 -2°C° 0 mm 1 m/S 747 mmHg 76%
05:00 -1°C° 0 mm 1 m/S 747 mmHg 75%
06:00 -1°C° 0 mm 1 m/S 747 mmHg 73%
07:00 -1°C° 0 mm 1 m/S 747 mmHg 72%
08:00 0°C° 0 mm 1 m/S 747 mmHg 66%
09:00 -1°C° 0 mm 2 m/S 747 mmHg 61%
10:00 +1°C° 0 mm 2 m/S 747 mmHg 55%
11:00 +1°C° 0 mm 2 m/S 747 mmHg 52%
12:00 +2°C° 0 mm 2 m/S 747 mmHg 49%
13:00 +2°C° 0 mm 2 m/S 746 mmHg 45%
14:00 +2°C° 0 mm 2 m/S 746 mmHg 46%
15:00 +2°C° 0 mm 2 m/S 746 mmHg 46%
16:00 +3°C° 0 mm 1 m/S 745 mmHg 46%
17:00 +3°C° 0 mm 1 m/S 745 mmHg 49%
18:00 +2°C° 0 mm 1 m/S 746 mmHg 52%
19:00 +1°C° 0 mm 1 m/S 746 mmHg 54%
20:00 +1°C° 0 mm 1 m/S 746 mmHg 55%
21:00 -1°C° 0 mm 2 m/S 746 mmHg 56%
22:00 -1°C° 0 mm 2 m/S 746 mmHg 57%
23:00 -1°C° 0 mm 2 m/S 746 mmHg 58%

10 März, Mittwoch

Zeit Temperatur Niederschläge Wind Luftdruck Luftfeuchtigkeit
00:00 -1°C° 0 mm 2 m/S 745 mmHg 58%
01:00 -1°C° 0 mm 2 m/S 745 mmHg 58%
02:00 -2°C° 0.1 mm 2 m/S 745 mmHg 70%
03:00 -2°C° 0.1 mm 2 m/S 745 mmHg 81%
04:00 -2°C° 0.1 mm 2 m/S 745 mmHg 93%
05:00 -2°C° 0.2 mm 2 m/S 745 mmHg 94%
06:00 -1°C° 0.2 mm 2 m/S 745 mmHg 95%
07:00 -1°C° 0.2 mm 2 m/S 745 mmHg 96%
08:00 -1°C° 0.1 mm 2 m/S 745 mmHg 95%
09:00 +1°C° 0.1 mm 2 m/S 746 mmHg 93%
10:00 +1°C° 0.1 mm 2 m/S 746 mmHg 92%
11:00 +2°C° 0 mm 2 m/S 746 mmHg 92%
12:00 +2°C° 0 mm 2 m/S 746 mmHg 93%
13:00 +2°C° 0 mm 2 m/S 746 mmHg 93%
14:00 +2°C° 0.1 mm 2 m/S 746 mmHg 94%
15:00 +2°C° 0.1 mm 2 m/S 746 mmHg 95%
16:00 +2°C° 0.1 mm 2 m/S 745 mmHg 96%
17:00 +2°C° 0 mm 2 m/S 745 mmHg 96%
18:00 +2°C° 0 mm 2 m/S 745 mmHg 96%
19:00 +1°C° 0 mm 3 m/S 745 mmHg 96%
20:00 +1°C° 0 mm 3 m/S 745 mmHg 95%
21:00 0°C° 0 mm 3 m/S 745 mmHg 95%
22:00 0°C° 0 mm 3 m/S 745 mmHg 94%
23:00 0°C° 0 mm 3 m/S 745 mmHg 93%

11 März, Donnerstag

Zeit Temperatur Niederschläge Wind Luftdruck Luftfeuchtigkeit
00:00 -1°C° 0 mm 4 m/S 744 mmHg 92%
01:00 -1°C° 0 mm 4 m/S 744 mmHg 90%
02:00 -1°C° 0 mm 4 m/S 743 mmHg 88%
03:00 -1°C° 0 mm 5 m/S 743 mmHg 86%
04:00 0°C° 0 mm 5 m/S 742 mmHg 84%
05:00 -1°C° 0 mm 6 m/S 741 mmHg 81%
06:00 +1°C° 0 mm 6 m/S 741 mmHg 79%
07:00 +1°C° 0 mm 6 m/S 740 mmHg 76%
08:00 0°C° 0.3 mm 7 m/S 740 mmHg 78%
09:00 +2°C° 0.3 mm 7 m/S 740 mmHg 81%
10:00 +1°C° 0.3 mm 8 m/S 739 mmHg 84%
11:00 +1°C° 0.1 mm 8 m/S 739 mmHg 84%
12:00 +2°C° 0.1 mm 8 m/S 739 mmHg 85%
13:00 +2°C° 0.1 mm 8 m/S 738 mmHg 85%
14:00 +4°C° 0 mm 8 m/S 738 mmHg 81%
15:00 +5°C° 0 mm 8 m/S 738 mmHg 76%
16:00 +6°C° 0 mm 8 m/S 738 mmHg 72%
17:00 +6°C° 0.1 mm 8 m/S 738 mmHg 75%
18:00 +6°C° 0.1 mm 7 m/S 738 mmHg 78%
19:00 +5°C° 0.1 mm 7 m/S 738 mmHg 82%
20:00 +5°C° 0.4 mm 7 m/S 738 mmHg 82%
21:00 +4°C° 0.4 mm 6 m/S 739 mmHg 83%
22:00 +4°C° 0.4 mm 6 m/S 739 mmHg 84%
23:00 +3°C° 0 mm 6 m/S 740 mmHg 84%
Mehr zeigen

Wir brauchen deine Erlaubnis

Meteoprog und unser Service Anbieter werden persönliche Daten aufbewahren, so wie Cookies, Geräte Bezeichnung oder ähnliche Technologien von deinem Gerät und Prozess, so wie Persönliche Daten Inhalte und Werbungen, genauso wie social Media und den Verkehr zu analysieren.

  • Aufbewahrung und/oder Zugang zu deiner Geräte Informationen.

    Cookies, Geräte Bezeichnung oder andere Informationen, können aufbewahrt oder Zugang zu deinem Gerät erhalten, für den Grund, der oben angegeben wird.

  • Personalisierte Werbung und Inhalte, Messungen, Einblick in das Publikum und Produkt Entwicklung.

    Werbungen und Inhalte können personalisiert werden, basierend auf ein Profil. Mehr Daten können besser personalisierte Werbungen und Inhalte hinzufügen. Werbung und Inhalte können gezeigt und gemessen werden. Einblicke über das Publikum, welche die Werbung gesehen haben und den Inhalt, können abgeleitet werden. So wie Daten können genutzt werden, um es zu verbessern oder die Benutzer Erfahrung zu verbessern das System und die Software.

Wenn du “Ich stimme zu” klickst, erlaubst du uns, die Cookies zu benutzen die Geräte Bezeichnung, den Web oder ähnliche Technologien zu benutzen. Deine Settings, können in deinem Gerät bei deinem Browser geändert werden.

Für den bestimmten Zweck, berechtigten Interessen beruhen darauf, mehr als auf den Inhalt. Du kannst mehr darüber in unseren Privaten und Cookie Politik lesen.